This is the latest recevied weather packets stored in our database for station/object WB3EGK. If no packets are shown the sender has not sent any weather packets the latest 10 day(s).
| Time | Temp. | Humidity | Pressure | Rain* | Wind** | Luminosity | Snow |
|---|---|---|---|---|---|---|---|
| 1778179515 | 12.22° C | 1% | 1008.5 hPa | 0 mm | - | 233 W/m² | - |
| 1778179212 | 12.22° C | 1% | 1008.4 hPa | 0 mm | - | 292 W/m² | - |
| 1778178908 | 12.22° C | 1% | 1008.5 hPa | 0 mm | - | 253 W/m² | - |
| 1778178606 | 11.67° C | 1% | 1008.3 hPa | 0 mm | - | 379 W/m² | - |
| 1778178302 | 12.22° C | 1% | 1008.5 hPa | 0 mm | - | 172 W/m² | - |
| 1778177997 | 12.22° C | 1% | 1008.4 hPa | 0 mm | - | 144 W/m² | - |
| 1778177694 | 12.78° C | 1% | 1008.3 hPa | 0 mm | - | 156 W/m² | - |
| 1778177390 | 13.89° C | 1% | 1008.4 hPa | 0 mm | - | 188 W/m² | - |
| 1778177087 | 13.33° C | 1% | 1008.5 hPa | 0 mm | - | 889 W/m² | - |
| 1778176783 | 12.22° C | 1% | 1008.5 hPa | 0 mm | - | 588 W/m² | - |
| 1778176481 | 12.22° C | 1% | 1008.5 hPa | 0 mm | - | 304 W/m² | - |
| 1778176178 | 11.67° C | 1% | 1008.5 hPa | 0 mm | - | 209 W/m² | - |
| 1778175875 | 12.22° C | 1% | 1008.5 hPa | 0 mm | - | 225 W/m² | - |
| 1778175572 | 12.22° C | 1% | 1008.5 hPa | 0 mm | - | 207 W/m² | - |
| 1778175270 | 12.22° C | 1% | 1008.8 hPa | 0 mm | - | 177 W/m² | - |
| 1778174966 | 12.78° C | 1% | 1008.7 hPa | 0 mm | - | 357 W/m² | - |
| 1778174663 | 12.78° C | 1% | 1008.8 hPa | 0 mm | - | 354 W/m² | - |
| 1778174359 | 12.78° C | 1% | 1008.9 hPa | 0 mm | - | 628 W/m² | - |
| 1778174055 | 12.78° C | 1% | 1009 hPa | 0 mm | - | 344 W/m² | - |
| 1778173753 | 12.22° C | 1% | 1009.1 hPa | 0 mm | - | 950 W/m² | - |
| 1778173449 | 11.67° C | 1% | 1009.1 hPa | 0 mm | - | 956 W/m² | - |
| 1778173145 | 11.67° C | 1% | 1009 hPa | 0 mm | - | 245 W/m² | - |
| 1778172841 | 11.67° C | 1% | 1009.1 hPa | 0 mm | - | 213 W/m² | - |
| 1778172537 | 12.22° C | 1% | 1009.4 hPa | 0 mm | - | 241 W/m² | - |
| 1778172234 | 12.78° C | 1% | 1008.8 hPa | 0 mm | - | 337 W/m² | - |
* Rain latest hour (hover to see other rain measurements)
** Current wind speed in m/s (hover to see current wind gust speed)